Tracking 28790 objects as of 19-Apr-2024
HD Live streaming from Space Station
objects crossing your sky now

BREEZE-M DEB

Track BREEZE-M DEB now!
10-day predictions


NORAD ID: 38607
Int'l Code: 2008-011BE
Perigee: 833.6 km
Apogee: 26,512.3 km
Inclination: 49.8 °
Period: 470.7 minutes
Semi major axis: 20043 km
RCS: 0.0283 m2 (small)
Launch date: March 14, 2008
Source: Commonwealth of Independent States (former USSR) (CIS)
Launch site: TYURATAM MISSILE AND SPACE COMPLEX (TTMTR)

Note: This is SATELLITE DEBRIS
Your satellite tracking list
Your tracking list is empty




NASA's NSSDC Master Catalog

Two Line Element Set (TLE):
1 38607U 08011BE  24108.31829498  .00000144  00000-0  83970-2 0  9991
2 38607  49.8152 327.9752 6405615 255.7401 341.7456  3.05935151147667
Source of the keplerian elements: AFSPC